When you browse on this site, cookies collect data to enhance your experience and personalize the content and advertising you see.
Visit our Privacy Policy to learn more. By continuing to use the site, you agree to this use of cookies and data.
  • In Schweiz
  • Länderverzeichnis
  • Für 7 Tage
  • Wassertemperatur
  • Satellitenkarten
  • Wetterkarte
  • Widgets
  • user-avatar
    Anmelden

    Stündliche Wetter Zhemchuzhnikovo

    Heute, 18 Juni, Dienstag

    Zeit Temperatur Niederschläge Wind Luftdruck Luftfeuchtigkeit
    00:00 +17°C° 0 mm 2 m/S 741 mmHg 90%
    01:00 +16°C° 0 mm 2 m/S 741 mmHg 91%
    02:00 +16°C° 0 mm 2 m/S 741 mmHg 89%
    03:00 +17°C° 0.4 mm 2 m/S 741 mmHg 90%
    04:00 +17°C° 0.4 mm 2 m/S 741 mmHg 90%
    05:00 +17°C° 0.4 mm 2 m/S 741 mmHg 91%
    06:00 +19°C° 0.9 mm 2 m/S 741 mmHg 89%
    07:00 +20°C° 0.9 mm 2 m/S 741 mmHg 87%
    08:00 +21°C° 0.9 mm 2 m/S 741 mmHg 86%
    09:00 +23°C° 0.8 mm 2 m/S 740 mmHg 80%
    10:00 +24°C° 0.8 mm 2 m/S 740 mmHg 75%
    11:00 +25°C° 0.8 mm 2 m/S 740 mmHg 69%
    12:00 +26°C° 0.3 mm 3 m/S 740 mmHg 70%
    13:00 +26°C° 0.3 mm 3 m/S 740 mmHg 70%
    14:00 +26°C° 0.3 mm 4 m/S 740 mmHg 70%
    15:00 +25°C° 0.3 mm 4 m/S 740 mmHg 72%
    16:00 +25°C° 0.3 mm 3 m/S 740 mmHg 74%
    17:00 +25°C° 0.3 mm 3 m/S 740 mmHg 76%
    18:00 +22°C° 0.1 mm 3 m/S 740 mmHg 80%
    19:00 +21°C° 0.1 mm 3 m/S 740 mmHg 84%
    20:00 +19°C° 0.1 mm 3 m/S 741 mmHg 88%
    21:00 +18°C° 0 mm 2 m/S 741 mmHg 89%
    22:00 +17°C° 0 mm 2 m/S 741 mmHg 90%
    23:00 +17°C° 0 mm 2 m/S 741 mmHg 90%

    Morgen, 19 Juni, Mittwoch

    Zeit Temperatur Niederschläge Wind Luftdruck Luftfeuchtigkeit
    00:00 +16°C° 0 mm 2 m/S 741 mmHg 91%
    01:00 +16°C° 0 mm 2 m/S 742 mmHg 92%
    02:00 +15°C° 0 mm 2 m/S 742 mmHg 93%
    03:00 +15°C° 0 mm 2 m/S 742 mmHg 91%
    04:00 +15°C° 0 mm 2 m/S 742 mmHg 89%
    05:00 +16°C° 0 mm 3 m/S 742 mmHg 87%
    06:00 +17°C° 0 mm 3 m/S 743 mmHg 82%
    07:00 +19°C° 0 mm 3 m/S 743 mmHg 77%
    08:00 +20°C° 0 mm 3 m/S 743 mmHg 72%
    09:00 +22°C° 0 mm 3 m/S 743 mmHg 66%
    10:00 +24°C° 0 mm 3 m/S 743 mmHg 60%
    11:00 +25°C° 0 mm 3 m/S 743 mmHg 54%
    12:00 +25°C° 0 mm 3 m/S 743 mmHg 53%
    13:00 +26°C° 0 mm 3 m/S 743 mmHg 52%
    14:00 +26°C° 0 mm 2 m/S 743 mmHg 52%
    15:00 +26°C° 0 mm 2 m/S 743 mmHg 55%
    16:00 +26°C° 0 mm 2 m/S 743 mmHg 58%
    17:00 +26°C° 0 mm 1 m/S 743 mmHg 62%
    18:00 +24°C° 0 mm 1 m/S 743 mmHg 66%
    19:00 +22°C° 0 mm 1 m/S 743 mmHg 71%
    20:00 +20°C° 0 mm 1 m/S 743 mmHg 75%
    21:00 +19°C° 0 mm 1 m/S 743 mmHg 77%
    22:00 +18°C° 0 mm 1 m/S 743 mmHg 78%
    23:00 +16°C° 0 mm 1 m/S 743 mmHg 79%

    übermorgen, 20 Juni, Donnerstag

    Zeit Temperatur Niederschläge Wind Luftdruck Luftfeuchtigkeit
    00:00 +16°C° 0 mm 1 m/S 744 mmHg 79%
    01:00 +16°C° 0 mm 1 m/S 744 mmHg 79%
    02:00 +15°C° 0 mm 1 m/S 744 mmHg 79%
    03:00 +16°C° 0 mm 1 m/S 744 mmHg 79%
    04:00 +18°C° 0 mm 1 m/S 744 mmHg 79%
    05:00 +19°C° 0 mm 1 m/S 744 mmHg 80%
    06:00 +20°C° 0 mm 1 m/S 744 mmHg 75%
    07:00 +22°C° 0 mm 1 m/S 744 mmHg 71%
    08:00 +24°C° 0 mm 1 m/S 744 mmHg 67%
    09:00 +25°C° 0 mm 1 m/S 744 mmHg 62%
    10:00 +24°C° 0 mm 0 m/S 744 mmHg 57%
    11:00 +25°C° 0 mm 0 m/S 745 mmHg 52%
    12:00 +28°C° 0 mm 1 m/S 744 mmHg 51%
    13:00 +28°C° 0 mm 1 m/S 744 mmHg 49%
    14:00 +28°C° 0 mm 1 m/S 744 mmHg 48%
    15:00 +28°C° 0 mm 1 m/S 744 mmHg 52%
    16:00 +28°C° 0 mm 1 m/S 744 mmHg 56%
    17:00 +27°C° 0 mm 1 m/S 743 mmHg 60%
    18:00 +25°C° 0 mm 1 m/S 743 mmHg 64%
    19:00 +23°C° 0 mm 1 m/S 743 mmHg 68%
    20:00 +21°C° 0 mm 1 m/S 743 mmHg 72%
    21:00 +20°C° 0 mm 1 m/S 744 mmHg 75%
    22:00 +20°C° 0 mm 1 m/S 744 mmHg 78%
    23:00 +19°C° 0 mm 1 m/S 744 mmHg 81%

    21 Juni, Freitag

    Zeit Temperatur Niederschläge Wind Luftdruck Luftfeuchtigkeit
    00:00 +19°C° 0 mm 1 m/S 744 mmHg 82%
    01:00 +18°C° 0 mm 1 m/S 744 mmHg 84%
    02:00 +18°C° 0 mm 1 m/S 744 mmHg 85%
    03:00 +19°C° 0 mm 1 m/S 744 mmHg 85%
    04:00 +19°C° 0 mm 1 m/S 745 mmHg 84%
    05:00 +20°C° 0 mm 1 m/S 745 mmHg 84%
    06:00 +21°C° 0 mm 1 m/S 745 mmHg 79%
    07:00 +23°C° 0 mm 2 m/S 745 mmHg 74%
    08:00 +25°C° 0 mm 2 m/S 745 mmHg 69%
    09:00 +25°C° 0 mm 2 m/S 745 mmHg 65%
    10:00 +26°C° 0 mm 2 m/S 745 mmHg 60%
    11:00 +27°C° 0 mm 3 m/S 745 mmHg 56%
    12:00 +27°C° 0 mm 2 m/S 745 mmHg 55%
    13:00 +27°C° 0 mm 2 m/S 744 mmHg 54%
    14:00 +28°C° 0 mm 2 m/S 744 mmHg 54%
    15:00 +27°C° 0 mm 2 m/S 744 mmHg 58%
    16:00 +27°C° 0 mm 2 m/S 744 mmHg 62%
    17:00 +27°C° 0 mm 2 m/S 744 mmHg 66%
    18:00 +25°C° 0 mm 2 m/S 744 mmHg 70%
    19:00 +23°C° 0 mm 2 m/S 744 mmHg 74%
    20:00 +21°C° 0 mm 2 m/S 744 mmHg 77%
    21:00 +20°C° 0 mm 2 m/S 744 mmHg 80%
    22:00 +19°C° 0 mm 2 m/S 744 mmHg 82%
    23:00 +19°C° 0 mm 2 m/S 744 mmHg 84%

    22 Juni, Samstag

    Zeit Temperatur Niederschläge Wind Luftdruck Luftfeuchtigkeit
    00:00 +18°C° 0 mm 2 m/S 744 mmHg 85%
    01:00 +18°C° 0 mm 2 m/S 744 mmHg 86%
    02:00 +18°C° 0 mm 2 m/S 744 mmHg 88%
    03:00 +18°C° 0 mm 2 m/S 744 mmHg 87%
    04:00 +18°C° 0 mm 2 m/S 744 mmHg 86%
    05:00 +19°C° 0 mm 2 m/S 744 mmHg 85%
    06:00 +20°C° 0 mm 3 m/S 744 mmHg 82%
    07:00 +22°C° 0 mm 3 m/S 744 mmHg 78%
    08:00 +25°C° 0 mm 3 m/S 744 mmHg 75%
    09:00 +26°C° 0 mm 4 m/S 744 mmHg 70%
    10:00 +27°C° 0 mm 4 m/S 744 mmHg 66%
    11:00 +28°C° 0 mm 4 m/S 744 mmHg 61%
    12:00 +28°C° 0 mm 4 m/S 744 mmHg 61%
    13:00 +28°C° 0 mm 5 m/S 744 mmHg 61%
    14:00 +29°C° 0 mm 5 m/S 744 mmHg 61%
    15:00 +28°C° 0 mm 4 m/S 743 mmHg 64%
    16:00 +28°C° 0 mm 4 m/S 743 mmHg 68%
    17:00 +28°C° 0 mm 4 m/S 743 mmHg 72%
    18:00 +26°C° 0 mm 3 m/S 743 mmHg 76%
    19:00 +25°C° 0 mm 3 m/S 743 mmHg 81%
    20:00 +22°C° 0 mm 3 m/S 743 mmHg 86%
    21:00 +21°C° 0 mm 3 m/S 743 mmHg 87%
    22:00 +21°C° 0 mm 3 m/S 743 mmHg 89%
    23:00 +20°C° 0 mm 3 m/S 743 mmHg 91%

    23 Juni, Sonntag

    Zeit Temperatur Niederschläge Wind Luftdruck Luftfeuchtigkeit
    00:00 +20°C° 0 mm 3 m/S 743 mmHg 92%
    01:00 +19°C° 0 mm 3 m/S 743 mmHg 93%
    02:00 +19°C° 0 mm 2 m/S 743 mmHg 93%
    03:00 +20°C° 0 mm 2 m/S 744 mmHg 92%
    04:00 +20°C° 0 mm 2 m/S 744 mmHg 91%
    05:00 +20°C° 0 mm 2 m/S 744 mmHg 89%
    06:00 +23°C° 0.1 mm 2 m/S 744 mmHg 84%
    07:00 +25°C° 0.1 mm 3 m/S 744 mmHg 79%
    08:00 +26°C° 0.1 mm 3 m/S 744 mmHg 73%
    09:00 +27°C° 0.1 mm 3 m/S 744 mmHg 67%
    10:00 +29°C° 0.1 mm 4 m/S 744 mmHg 61%
    11:00 +30°C° 0.1 mm 4 m/S 744 mmHg 55%
    12:00 +30°C° 0 mm 4 m/S 744 mmHg 55%
    13:00 +30°C° 0 mm 4 m/S 744 mmHg 55%
    14:00 +30°C° 0 mm 4 m/S 744 mmHg 55%
    15:00 +30°C° 0 mm 4 m/S 744 mmHg 60%
    16:00 +29°C° 0 mm 3 m/S 743 mmHg 64%
    17:00 +29°C° 0 mm 3 m/S 743 mmHg 69%
    18:00 +27°C° 0 mm 2 m/S 743 mmHg 73%
    19:00 +25°C° 0 mm 2 m/S 743 mmHg 77%
    20:00 +24°C° 0 mm 2 m/S 743 mmHg 81%
    21:00 +23°C° 0 mm 2 m/S 743 mmHg 82%
    22:00 +21°C° 0 mm 2 m/S 743 mmHg 84%
    23:00 +20°C° 0 mm 2 m/S 743 mmHg 86%
    Mehr zeigen